Change the Weather History Date:

Thursday, September 12, 2013

  Actual Average Record
Temperature  
Mean Temperature 71 °F 62 °F  
Max Temperature 78 °F 72 °F 90 °F (1947)
Min Temperature 64 °F 52 °F 37 °F (1946)
Degree Days  
Heating Degree Days 0 4  
Month to date heating degree days 42 37  
Since 1 July heating degree days 58 79  
Cooling Degree Days 6 2  
Month to date cooling degree days 53 29  
Year to date cooling degree days 653 477  
Growing Degree Days 22 (Base 50)    
Moisture  
Dew Point 67 °F    
Average Humidity 87    
Maximum Humidity 97    
Minimum Humidity 76    
Precipitation  
Precipitation 1.01 in 0.12 in 2.48 in (1960)
Month to date precipitation 3.31 1.34  
Year to date precipitation 36.00 25.41  
Snow  
Snow 0.00 in 0.00 in 0.00 in (2002)
Month to date snowfall 0.0 0.0  
Since 1 July snowfall 0.0 0.0  
Since 1 September snowfall 0.0 0.0  
Snow Depth 0.00 in    
Sea Level Pressure  
Sea Level Pressure 29.73 in    
Wind  
Wind Speed 5 mph (SSW)    
Max Wind Speed 22 mph    
Max Gust Speed 32 mph    
Visibility 8 miles    
Events Rain , Thunderstorm    
T = Trace of Precipitation, MM = Missing Value Source: NWS Daily Summary

Daily Weather History Graph

Daily Weather History Graph

Search for Another Location

Airport or City:

Trip Planner

Search our weather history database for the weather conditions in past years. The results will help you decide how hot, cold, wet, or windy it might be!

Date:

Astronomy

Sep. 12, 2013 Rise Set
Actual Time 6:28 AM EDT 7:08 PM EDT
Civil Twilight 5:58 AM EDT 7:37 PM EDT
Nautical Twilight 5:24 AM EDT 8:12 PM EDT
Astronomical Twilight 4:47 AM EDT 8:48 PM EDT
Moon 2:08 PM EDT (9/12) 11:45 PM EDT (9/12)
Length of Visible Light 13h 38m
Length of Day
12h 40m
Waxing Crescent, 50% of the Moon is Illuminated
Sep 12
Waxing Crescent
Sep 12
First Quarter
Sep 19
Full
Sep 26
Last Quarter
Oct 4
New

Hourly Weather History & Observations

Time (EDT) Temp. Dew Point Humidity Pressure Visibility Wind Dir Wind Speed Gust Speed Precip Events Conditions
12:54 AM 71.1 °F 68.0 °F 90% 29.89 in 10.0 mi Calm Calm - 0.01 in   Mostly Cloudy
1:54 AM 69.1 °F 68.0 °F 96% 29.87 in 9.0 mi Calm Calm - N/A   Clear
2:54 AM 69.1 °F 68.0 °F 96% 29.88 in 8.0 mi North 5.8 mph - 0.01 in   Scattered Clouds
3:54 AM 70.0 °F 66.9 °F 90% 29.88 in 10.0 mi South 5.8 mph - 0.01 in   Mostly Cloudy
4:54 AM 71.1 °F 66.0 °F 84% 29.86 in 10.0 mi Variable 5.8 mph - N/A   Mostly Cloudy
5:54 AM 71.1 °F 64.9 °F 81% 29.84 in 10.0 mi South 10.4 mph - N/A   Mostly Cloudy
6:54 AM 72.0 °F 64.9 °F 78% 29.83 in 10.0 mi South 10.4 mph 21.9 mph N/A   Scattered Clouds
7:54 AM 72.0 °F 64.9 °F 78% 29.82 in 10.0 mi South 12.7 mph - N/A   Mostly Cloudy
8:54 AM 73.0 °F 66.0 °F 79% 29.80 in 10.0 mi SSW 15.0 mph 20.7 mph N/A   Mostly Cloudy
9:54 AM 73.0 °F 66.0 °F 79% 29.80 in 10.0 mi South 11.5 mph - 0.01 in Rain Light Rain
10:54 AM 71.1 °F 68.0 °F 90% 29.78 in 10.0 mi South 6.9 mph - 0.05 in   Overcast
11:54 AM 72.0 °F 68.0 °F 87% 29.76 in 10.0 mi SSW 4.6 mph - 0.01 in   Overcast
12:54 PM 75.0 °F 70.0 °F 84% 29.75 in 10.0 mi Calm Calm - 0.00 in   Overcast
1:54 PM 77.0 °F 70.0 °F 79% 29.73 in 10.0 mi Calm Calm - N/A   Overcast
2:54 PM 72.0 °F 68.0 °F 87% 29.70 in 1.8 mi WSW 6.9 mph - 0.04 in Rain Rain
2:58 PM 71.6 °F 66.2 °F 83% 29.70 in 1.2 mi SW 9.2 mph - 0.04 in Rain , Thunderstorm Thunderstorms and Rain
3:03 PM 71.6 °F 66.2 °F 83% 29.70 in 2.0 mi West 5.8 mph - 0.07 in Rain , Thunderstorm Thunderstorms and Rain
3:12 PM 71.6 °F 66.2 °F 83% 29.70 in 9.0 mi SW 3.5 mph - 0.07 in Rain , Thunderstorm Light Rain
3:33 PM 73.4 °F 68.0 °F 83% 29.70 in 10.0 mi NW 4.6 mph - 0.07 in Rain Light Rain
3:54 PM 73.0 °F 66.9 °F 81% 29.68 in 7.0 mi Calm Calm - 0.08 in Rain Light Rain
4:54 PM 72.0 °F 69.1 °F 91% 29.67 in 10.0 mi ESE 5.8 mph - 0.02 in   Partly Cloudy
5:54 PM 72.0 °F 69.1 °F 91% 29.65 in 10.0 mi Calm Calm - 0.00 in   Scattered Clouds
6:54 PM 72.0 °F 69.1 °F 91% 29.66 in 10.0 mi Calm Calm - N/A   Mostly Cloudy
7:54 PM 70.0 °F 69.1 °F 97% 29.67 in 9.0 mi Calm Calm - 0.01 in Rain Light Rain
8:54 PM 69.1 °F 66.9 °F 93% 29.67 in 2.0 mi Calm Calm - 0.11 in Rain Heavy Rain
9:05 PM 69.8 °F 66.2 °F 88% 29.67 in 5.0 mi WSW 4.6 mph - 0.02 in Rain Light Rain
9:19 PM 69.8 °F 66.2 °F 88% 29.66 in 2.0 mi Calm Calm - 0.08 in Rain Heavy Rain
9:50 PM 68.0 °F 66.2 °F 94% 29.65 in 8.0 mi SSE 4.6 mph - 0.23 in Rain Light Rain
9:54 PM 68.0 °F 66.0 °F 93% 29.65 in 9.0 mi SSE 4.6 mph - 0.23 in Rain Light Rain
10:54 PM 66.9 °F 66.0 °F 97% 29.64 in 10.0 mi Calm Calm - 0.00 in   Scattered Clouds
11:17 PM 66.2 °F 64.4 °F 94% 29.64 in 10.0 mi Calm Calm - N/A   Overcast
11:26 PM 66.2 °F 64.4 °F 94% 29.63 in 10.0 mi Calm Calm - N/A   Overcast
11:50 PM 66.2 °F 64.4 °F 94% 29.62 in 8.0 mi NNE 3.5 mph - N/A   Overcast
11:54 PM 66.9 °F 64.9 °F 93% 29.62 in 9.0 mi NNE 3.5 mph - N/A   Overcast